FW6365 Weather Reports


time (UTC)temp
C
wind
direction
speed
KPH
gust
KPH
rain 1hr
cm
rain 24hr
cm
rain mn
cm
humidity
%
barometer
mb
20260506024550 15 273 4.8 11.3 0.00 0.00 0.00 78 1015.8
20260506024027 16 267 4.8 12.9 0.00 0.00 0.00 78 1015.8
20260506023527 16 246 6.4 12.9 0.00 0.00 0.00 78 1015.8
20260506023043 16 234 6.4 11.3 0.00 0.00 0.00 78 1015.8
20260506022530 16 277 4.8 11.3 0.00 0.00 0.00 77 1015.9
20260506022026 16 269 3.2 11.3 0.00 0.00 0.00 77 1015.8
20260506021540 16 213 3.2 14.5 0.00 0.00 0.00 77 1015.9
20260506021028 16 268 6.4 14.5 0.00 0.00 0.00 76 1015.8
20260506020526 16 208 4.8 12.9 0.00 0.00 0.00 76 1015.8
20260506020041 16 286 4.8 12.9 0.00 0.00 0.00 77 1015.7
20260506015530 16 227 4.8 14.5 0.00 0.00 0.00 77 1015.7
20260506015027 16 240 6.4 19.3 0.00 0.00 0.00 76 1015.7
20260506014543 16 230 9.7 19.3 0.00 0.00 0.00 76 1015.7
20260506014026 16 263 12.9 19.3 0.00 0.00 0.00 76 1015.7
20260506013529 17 242 8.0 17.7 0.00 0.00 0.00 75 1015.7
20260506013038 17 269 11.3 17.7 0.00 0.00 0.00 75 1015.8
20260506012527 17 219 8.0 16.1 0.00 0.00 0.00 74 1015.7
20260506012028 17 225 6.4 14.5 0.00 0.00 0.00 74 1015.7
20260506011544 17 240 6.4 14.5 0.00 0.00 0.00 74 1015.7
20260506011029 17 206 6.4 14.5 0.00 0.00 0.00 74 1015.7
20260506010527 17 225 8.0 14.5 0.00 0.00 0.00 74 1015.7
20260506010043 17 223 4.8 14.5 0.00 0.00 0.00 75 1015.7
20260506005527 17 240 8.0 14.5 0.00 0.00 0.00 74 1015.8
20260506005026 17 257 8.0 16.1 0.00 0.00 0.00 74 1015.8
20260506004541 17 197 8.0 16.1 0.00 0.00 0.00 75 1016.0
20260506004028 17 245 4.8 17.7 0.00 0.00 0.00 74 1016.0
20260506003526 17 225 8.0 17.7 0.00 0.00 0.00 75 1016.0
20260506003040 17 219 6.4 14.5 0.00 0.00 0.00 74 1015.9
20260506002526 17 227 4.8 14.5 0.00 0.00 0.00 76 1015.9
20260506002026 16 246 6.4 16.1 0.00 0.00 0.00 76 1015.9
20260506001542 16 226 8.0 16.1 0.00 0.00 0.00 77 1015.9
20260506001026 16 234 4.8 14.5 0.00 0.00 0.00 77 1016.0
20260506000527 16 259 4.8 16.1 0.00 0.00 0.00 78 1016.0
20260506000040 16 284 9.7 16.1 0.00 0.00 0.00 77 1015.9
20260505235530 16 261 4.8 16.1 0.00 0.00 0.00 77 1016.0
20260505235027 16 224 6.4 16.1 0.00 0.00 0.00 77 1016.0
20260505234548 16 232 8.0 16.1 0.00 0.00 0.00 76 1016.1
20260505234026 16 246 3.2 11.3 0.00 0.00 0.00 76 1016.1
20260505233526 16 273 4.8 11.3 0.00 0.00 0.00 76 1016.2
20260505233042 16 200 4.8 12.9 0.00 0.00 0.00 77 1016.3
20260505232527 16 244 6.4 12.9 0.00 0.00 0.00 76 1016.2
20260505232027 17 306 4.8 11.3 0.00 0.00 0.00 76 1016.3
20260505231552 17 292 4.8 11.3 0.00 0.00 0.00 76 1016.4
20260505231027 17 311 4.8 14.5 0.00 0.00 0.00 79 1016.4
20260505230526 16 244 6.4 14.5 0.00 0.00 0.00 78 1016.5
20260505230053 16 259 6.4 14.5 0.00 0.00 0.00 78 1016.6
20260505225528 16 244 3.2 16.1 0.00 0.00 0.00 78 1016.5
20260505225030 16 0 8.0 16.1 0.00 0.00 0.00 77 1016.6
20260505224541 16 207 4.8 11.3 0.00 0.00 0.00 78 1016.6
20260505224026 16 271 3.2 9.7 0.00 0.00 0.00 78 1016.7
20260505223529 16 342 4.8 9.7 0.00 0.00 0.00 77 1016.6
20260505223044 16 296 3.2 9.7 0.00 0.00 0.00 79 1016.6
20260505222527 16 265 1.6 17.7 0.00 0.00 0.00 79 1016.7
20260505222027 16 235 6.4 17.7 0.00 0.00 0.00 78 1016.7
20260505221543 16 168 6.4 14.5 0.00 0.00 0.00 78 1016.8
20260505221034 16 241 4.8 14.5 0.00 0.00 0.00 78 1016.9
20260505220525 16 207 3.2 9.7 0.00 0.00 0.00 78 1016.8
20260505220043 16 0 0.0 9.7 0.00 0.00 0.00 79 1016.9
20260505215529 16 223 1.6 12.9 0.00 0.00 0.00 80 1016.9
20260505215028 16 281 4.8 12.9 0.00 0.00 0.00 79 1016.8
20260505214540 16 275 3.2 16.1 0.00 0.00 0.00 79 1016.9
20260505214026 16 235 6.4 16.1 0.00 0.00 0.00 78 1017.0
20260505213526 16 296 3.2 16.1 0.00 0.00 0.00 78 1017.0
20260505213048 16 220 3.2 16.1 0.00 0.00 0.00 79 1016.9
20260505212531 16 153 4.8 12.9 0.00 0.00 0.00 78 1017.0
20260505212027 16 251 3.2 14.5 0.00 0.00 0.00 79 1017.0
20260505211544 16 175 8.0 14.5 0.00 0.00 0.00 79 1017.0
20260505211026 16 161 6.4 12.9 0.00 0.00 0.00 79 1017.0
20260505210527 16 192 3.2 11.3 0.00 0.00 0.00 81 1017.1
20260505210041 15 174 6.4 12.9 0.00 0.00 0.00 80 1017.1
20260505205528 15 180 6.4 12.9 0.00 0.00 0.00 79 1017.1
20260505205028 15 210 6.4 12.9 0.00 0.00 0.00 79 1017.1
20260505204541 15 222 4.8 12.9 0.00 0.00 0.00 80 1017.1
20260505204026 15 163 6.4 12.9 0.00 0.00 0.00 81 1017.2
20260505203527 15 192 6.4 12.9 0.00 0.00 0.00 79 1017.2
20260505203040 15 232 6.4 12.9 0.00 0.00 0.00 80 1017.2
20260505202527 15 194 4.8 14.5 0.00 0.00 0.00 81 1017.1
20260505202028 15 177 6.4 16.1 0.00 0.00 0.00 79 1017.2
20260505201540 15 174 4.8 16.1 0.00 0.00 0.00 80 1017.2
20260505201028 15 173 4.8 12.9 0.00 0.00 0.00 80 1017.2
20260505200527 15 222 3.2 11.3 0.00 0.00 0.00 79 1017.1
20260505200043 15 225 3.2 8.0 0.00 0.00 0.00 81 1017.2
20260505195531 15 143 4.8 8.0 0.00 0.00 0.00 79 1017.1
20260505195026 15 284 3.2 12.9 0.00 0.00 0.00 81 1017.2
20260505194540 15 227 4.8 12.9 0.00 0.00 0.00 80 1017.3
20260505194026 15 196 4.8 11.3 0.00 0.00 0.00 81 1017.3
20260505193525 15 201 6.4 17.7 0.00 0.00 0.00 81 1017.2
20260505193042 15 167 4.8 17.7 0.00 0.00 0.00 81 1017.3
20260505192528 15 200 6.4 17.7 0.00 0.00 0.00 80 1017.3
20260505192025 15 189 6.4 11.3 0.00 0.00 0.00 81 1017.2
20260505191550 15 173 6.4 11.3 0.00 0.00 0.00 81 1017.2
20260505191025 15 214 4.8 12.9 0.00 0.00 0.00 83 1017.1
20260505190526 15 166 4.8 12.9 0.00 0.00 0.00 81 1017.1
20260505190040 15 237 3.2 12.9 0.00 0.00 0.00 81 1017.0
20260505185526 14 138 8.0 12.9 0.00 0.00 0.00 82 1017.1
20260505185026 14 179 6.4 9.7 0.00 0.00 0.00 81 1017.3
20260505184540 14 224 3.2 8.0 0.00 0.00 0.00 82 1017.3
20260505184026 14 208 3.2 8.0 0.00 0.00 0.00 81 1017.3
20260505183526 14 232 3.2 8.0 0.00 0.00 0.00 82 1017.3
20260505183048 14 196 3.2 9.7 0.00 0.00 0.00 82 1017.3
20260505182528 14 222 3.2 9.7 0.00 0.00 0.00 82 1017.1
20260505182026 14 192 4.8 11.3 0.00 0.00 0.00 83 1017.1
20260505181543 14 172 6.4 11.3 0.00 0.00 0.00 83 1017.2
20260505181026 14 217 6.4 11.3 0.00 0.00 0.00 82 1017.1
20260505180525 14 176 4.8 11.3 0.00 0.00 0.00 83 1017.0
20260505180059 13 231 4.8 11.3 0.00 0.00 0.00 83 1016.9
20260505175526 13 159 3.2 9.7 0.00 0.00 0.00 83 1017.0
20260505175027 13 204 8.0 9.7 0.00 0.00 0.00 82 1017.0
20260505174552 13 202 3.2 8.0 0.00 0.00 0.00 83 1017.0
20260505174026 13 178 4.8 12.9 0.00 0.00 0.00 83 1017.0
20260505173529 13 157 6.4 12.9 0.00 0.00 0.00 83 1017.0
20260505173045 13 175 4.8 12.9 0.00 0.00 0.00 83 1016.8
20260505172526 13 134 4.8 12.9 0.00 0.00 0.00 83 1017.0
20260505172028 13 159 8.0 12.9 0.00 0.00 0.00 83 1016.8
20260505171542 13 142 4.8 9.7 0.00 0.00 0.00 83 1016.9
20260505171026 13 186 4.8 14.5 0.00 0.00 0.00 84 1016.8
20260505170526 13 171 4.8 14.5 0.00 0.00 0.00 83 1016.8
20260505170046 13 184 4.8 9.7 0.00 0.00 0.00 83 1016.8
20260505165528 13 149 4.8 9.7 0.00 0.00 0.00 83 1016.7
20260505165029 13 161 3.2 9.7 0.00 0.00 0.00 83 1016.7
20260505164543 13 207 6.4 14.5 0.00 0.00 0.00 84 1016.7
20260505164031 13 225 8.0 14.5 0.00 0.00 0.00 83 1016.7
20260505163527 13 169 6.4 12.9 0.00 0.00 0.00 84 1016.5
20260505163042 13 146 6.4 12.9 0.00 0.00 0.00 83 1016.5
20260505162525 13 157 8.0 12.9 0.00 0.00 0.00 84 1016.4
20260505162026 13 171 4.8 14.5 0.00 0.00 0.00 84 1016.4
20260505161552 13 189 8.0 14.5 0.00 0.00 0.00 84 1016.4
20260505161027 13 164 8.0 14.5 0.00 0.00 0.00 84 1016.3
20260505160527 13 154 8.0 11.3 0.00 0.00 0.00 85 1016.4
20260505153044 13 176 8.0 12.9 0.00 0.00 0.00 86 1016.2
20260505152525 13 205 4.8 11.3 0.00 0.00 0.00 87 1016.1
20260505152025 13 159 3.2 9.7 0.00 0.00 0.00 87 1016.1
20260505151542 13 168 4.8 9.7 0.00 0.00 0.00 87 1016.1
20260505151026 13 167 4.8 9.7 0.00 0.00 0.00 87 1016.0
20260505150526 13 169 6.4 9.7 0.00 0.00 0.00 87 1016.0
20260505140526 12 186 1.6 6.4 0.00 0.00 0.00 89 1015.6
20260505125025 12 207 3.2 6.4 0.00 0.00 0.00 89 1015.0
20260505124538 12 227 1.6 4.8 0.00 0.00 0.00 89 1015.1
20260505124025 12 184 1.6 6.4 0.00 0.00 0.00 89 1015.0
20260505123527 12 215 3.2 6.4 0.00 0.00 0.00 89 1015.0
20260505123038 12 204 1.6 6.4 0.00 0.00 0.00 88 1015.0
20260505122526 12 218 3.2 14.5 0.00 0.00 0.00 88 1014.9
20260505122026 12 198 3.2 14.5 0.00 0.00 0.00 88 1014.9
20260505121542 12 192 4.8 11.3 0.00 0.00 0.00 88 1014.9
20260505121026 12 227 4.8 11.3 0.00 0.00 0.00 88 1014.8
20260505120525 12 215 1.6 9.7 0.00 0.00 0.00 89 1014.8
20260505120040 12 179 4.8 9.7 0.00 0.00 0.00 89 1014.7
20260505115525 12 187 4.8 9.7 0.00 0.00 0.00 89 1014.7
20260505115025 12 210 4.8 9.7 0.00 0.00 0.00 89 1014.6
20260505114541 12 176 3.2 9.7 0.00 0.00 0.00 89 1014.6
20260505114028 12 163 6.4 9.7 0.00 0.00 0.00 89 1014.5
20260505113524 12 183 4.8 9.7 0.00 0.00 0.00 89 1014.6
20260505113044 12 183 4.8 9.7 0.00 0.00 0.00 89 1014.6
20260505112526 12 215 3.2 8.0 0.00 0.00 0.00 89 1014.6
20260505112026 12 198 3.2 9.7 0.00 0.00 0.00 89 1014.5
20260505111541 12 231 3.2 9.7 0.00 0.00 0.00 89 1014.5
20260505111026 12 231 4.8 11.3 0.00 0.00 0.00 89 1014.6
20260505110528 12 189 3.2 11.3 0.00 0.00 0.00 88 1014.5
20260505102026 12 169 3.2 14.5 0.00 0.00 0.00 88 1014.3
20260505101559 12 224 8.0 14.5 0.00 0.00 0.00 88 1014.2
20260505101026 12 182 4.8 9.7 0.00 0.00 0.00 88 1014.3
20260505100526 12 202 4.8 14.5 0.00 0.00 0.00 88 1014.2
20260505100059 12 184 8.0 14.5 0.00 0.00 0.00 87 1014.1
20260505095529 12 216 6.4 14.5 0.00 0.00 0.00 87 1014.2
20260505095025 12 213 1.6 11.3 0.00 0.00 0.00 87 1014.1
20260505094540 12 269 6.4 11.3 0.00 0.00 0.00 87 1014.2
20260505094025 12 256 3.2 12.9 0.00 0.00 0.00 87 1014.1
20260505093525 12 226 6.4 12.9 0.00 0.00 0.00 87 1014.1
20260505093040 12 237 4.8 12.9 0.00 0.00 0.00 87 1014.0
20260505092525 12 205 6.4 12.9 0.00 0.00 0.00 88 1014.0
20260505092026 12 278 1.6 14.5 0.00 0.00 0.00 88 1014.0
20260505091543 12 238 3.2 14.5 0.00 0.00 0.00 88 1014.0
20260505091025 12 208 4.8 8.0 0.00 0.00 0.00 88 1014.0
20260505090525 12 237 1.6 6.4 0.00 0.00 0.00 88 1013.9
20260505090042 12 240 3.2 6.4 0.00 0.00 0.00 88 1013.8
20260505085526 12 243 1.6 4.8 0.00 0.00 0.00 89 1013.9
20260505085026 12 232 3.2 11.3 0.00 0.00 0.00 89 1013.9
20260505084543 12 279 3.2 11.3 0.00 0.00 0.00 89 1013.9
20260505084026 12 231 4.8 11.3 0.00 0.00 0.00 89 1013.9
20260505083526 12 249 6.4 11.3 0.00 0.00 0.00 89 1013.9
20260505083041 12 238 4.8 9.7 0.00 0.00 0.00 90 1013.8
20260505082525 12 234 4.8 9.7 0.00 0.00 0.00 91 1013.8
20260505082025 12 205 3.2 6.4 0.00 0.00 0.00 91 1013.8
20260505081548 12 0 3.2 11.3 0.00 0.00 0.00 91 1013.9
20260505081025 11 236 1.6 11.3 0.00 0.00 0.00 92 1013.8
20260505080525 11 216 4.8 11.3 0.00 0.00 0.00 92 1013.8
20260505080049 11 208 3.2 8.0 0.00 0.00 0.00 92 1013.9
20260505075525 11 184 3.2 8.0 0.00 0.00 0.00 92 1013.8
20260505075023 11 224 3.2 8.0 0.00 0.00 0.00 92 1013.8
20260505074543 11 190 3.2 8.0 0.00 0.00 0.00 92 1013.8
20260505074023 11 179 4.8 8.0 0.00 0.00 0.00 92 1013.7
20260505073526 11 176 4.8 8.0 0.00 0.00 0.00 92 1013.7
20260505073043 11 151 4.8 8.0 0.00 0.00 0.00 92 1013.7
20260505072522 11 198 6.4 9.7 0.00 0.00 0.00 92 1013.6
20260505072025 11 171 4.8 9.7 0.00 0.00 0.00 92 1013.4
20260505071549 11 200 4.8 8.0 0.00 0.00 0.00 92 1013.4
20260505071025 11 142 3.2 8.0 0.00 0.00 0.00 92 1013.3
20260505070526 11 167 4.8 9.7 0.00 0.00 0.00 92 1013.2
20260505070040 11 151 3.2 9.7 0.00 0.00 0.00 92 1013.2
20260505065526 11 173 3.2 6.4 0.00 0.00 0.00 92 1013.2
20260505065025 11 185 3.2 8.0 0.00 0.00 0.00 91 1013.1
20260505064544 11 198 3.2 8.0 0.00 0.00 0.00 91 1013.1
20260505064025 11 151 3.2 8.0 0.00 0.00 0.00 91 1013.0
20260505063525 11 158 4.8 8.0 0.00 0.00 0.00 91 1012.9
20260505063047 11 152 4.8 8.0 0.00 0.00 0.00 90 1012.9
20260505062525 11 151 1.6 9.7 0.00 0.00 0.00 90 1012.8
20260505062025 11 142 4.8 9.7 0.00 0.00 0.00 90 1012.7
20260505061545 11 150 3.2 8.0 0.00 0.00 0.00 90 1012.6
20260505061026 11 171 3.2 6.4 0.00 0.00 0.00 89 1012.6
20260505060525 11 149 3.2 8.0 0.00 0.00 0.00 89 1012.7
20260505060043 11 132 3.2 9.7 0.00 0.00 0.00 90 1012.6
20260505055526 11 182 3.2 9.7 0.00 0.00 0.00 89 1012.7
20260505055026 12 205 3.2 8.0 0.00 0.00 0.00 89 1012.6
20260505054547 12 175 1.6 8.0 0.00 0.00 0.00 89 1012.7
20260505054026 12 225 3.2 6.4 0.00 0.00 0.00 89 1012.7
20260505053525 12 180 3.2 6.4 0.00 0.00 0.00 89 1012.6
20260505053047 12 183 3.2 8.0 0.00 0.00 0.00 89 1012.6
20260505052528 12 215 3.2 8.0 0.00 0.00 0.00 89 1012.6
20260505052028 12 173 1.6 8.0 0.00 0.00 0.00 89 1012.5
20260505051543 12 201 3.2 9.7 0.00 0.00 0.00 88 1012.7
20260505051024 12 165 4.8 9.7 0.00 0.00 0.00 88 1012.7
20260505050525 12 258 3.2 9.7 0.00 0.00 0.00 88 1012.5
20260505041540 12 192 4.8 9.7 0.00 0.00 0.00 86 1012.1
20260505041025 12 182 3.2 8.0 0.00 0.00 0.00 85 1012.0
20260505040525 13 170 4.8 12.9 0.00 0.00 0.00 85 1012.1
20260505040045 13 214 4.8 12.9 0.00 0.00 0.00 85 1011.9
20260505035524 13 219 3.2 14.5 0.00 0.00 0.00 84 1011.9
20260505035024 13 184 6.4 14.5 0.00 0.00 0.00 84 1011.8
20260505034546 13 202 6.4 14.5 0.00 0.00 0.00 83 1011.8
20260505034025 13 246 6.4 14.5 0.00 0.00 0.00 83 1011.6
20260505033525 13 255 4.8 12.9 0.00 0.00 0.00 82 1011.6
20260505033041 13 210 6.4 14.5 0.00 0.00 0.00 81 1011.5
20260505032525 14 243 8.0 19.3 0.00 0.00 0.00 81 1011.5
20260505032023 14 180 6.4 19.3 0.00 0.00 0.00 80 1011.5
20260505031547 14 226 8.0 24.1 0.00 0.00 0.00 79 1011.5
20260505031027 15 214 12.9 24.1 0.00 0.00 0.00 78 1011.4
20260505030525 15 217 12.9 20.9 0.00 0.00 0.00 76 1011.3
20260505030042 16 240 12.9 20.9 0.00 0.00 0.00 75 1011.3
20260505025526 16 210 6.4 14.5 0.00 0.00 0.00 74 1011.3
20260505025025 16 244 4.8 14.5 0.00 0.00 0.00 73 1011.1